Showing default

CHINASAT 16, 42662

Orbit data source: Space-Track

CHINASAT 16, 42662 is a payload satellite owned by CAST (CN) in GEO that was launched on Wed, 12 Apr 2017 UTC via a CHANG ZHENG 3B launch vehicle from the Xichang Space Center, China (XSC). Payloads include a variety of satellites, spacecraft, and rockets equipped with specific instruments for various scientific and technological missions. These include communications satellites like Starlink; space stations such as the ISS; scientific satellites like the Hubble; Earth observation satellites from companies like Planet Labs, Umbra, and HawkEye 360; GPS; miniature CubeSats for education and research; and military/defense satellites.

Not visible in the next 10 days
CHINASAT 16 details
Identifier
42662, 2017-018A
Orbit
GEO
Last TLE update2 days ago
Origin
Flag of CNCAST (CN / PRC)
ManufacturerCAST?
MissionOperational Civil Communications
Bus & MotorDFH-3B, LIPS-200
Mass4,600 kg wet, ~2,500 kg dry
Launch date (UTC)
2017-04-12 (8 years ago)
Launch vehicle
CHANG ZHENG 3B
Launch site
Xichang Space Center, China (XSC)
Object type
Payload
Rocket body
Debris
Shape & HBRBox + 2 Pan, 30 m
Radar Cross Section34.063 m², Large (>1 m²)

Expand to show TLE details & history

TLE from 2 days ago
0 CHINASAT 16
1 42662U 17018A   24337.09563301 -.00000324  00000-0  00000+0 0  9992
2 42662   0.0520 104.7980 0007612 140.9596 330.6507  1.00268802 28100
Epoch: 2024-12-02T02:17Z
Definitive object data (Epoch: 2024-12-02T02:17:42.692Z)
Latitude0.00511°
Longitude110.48264°
Altitude35,758.827 km
Speed3.077 km/s
True Right ascension14h 25m 20s
True Declination0° 00' 18"
Sunlit
Object was in daylight at TLE epoch
Visualization TLE readout
Latitude-0.04019°
Longitude-141.25385°
Altitude35,780.921 km
Speed3.075 km/s
Apparent Right ascension21h 24m 12s
Apparent Declination-5° 04' 09"
Sunlit
Object is in daylight
Visualization observer readout
Local Sidereal Time07:15:34
Azimuth311.756° NW
Elevation-44.705°
Doppler factor1
Orbital elements
Apogee altitude35,820.599 km
Perigee altitude35,756.404 km
Semi-major axis42,166.639 km
Eccentricity0.0007612
Inclination0.052°
RAAN104.798°
Arg. of periapsis140.9596°
True anomaly330.60791°
Mean anomaly330.6507°
Eccentric anomaly330.62931°
Mean motion0.25066 °/min
BSTARUnknown
Orbital period1436.19 mins
Loading historical data...
42662 neighbors
Authenticating...
Loading maneuver chart data...
Loading historical data...
Loading historical data...
Loading historical data...
Loading historical data...
Loading historical data...
Loading historical data...
Loading historical data...
Other satellites on launch #18 in the year 2017 (2017-04-12 UTC)

CHINASAT 16 Visibility forecast

Observer location: undefined°, undefined

CHINASAT 16 is not visible in the next 10 days
Span
Click to sort rows by Start time (UTC) header in descending order
Start Az.
Max El. time (UTC)
Max El. Az.
Max El.
End time (UTC)
End Az.
|